User: anonymous   Login
Location: *
(47.6569°N, 7.4256°E)
Time: 14:04:14
(UTC+00:00)
Language:

Lacrosse 5 - Orbit

View from above orbital plane
View from above orbital plane
View from above satellite
View from above satellite

Ground track
Ground track

The orbit data is extracted from the following two-line orbital elements,

1 28646U 05016A   20037.22443455 0.00000000  00000-0  00000-0 0    02
2 28646  57.0094 129.3021 0003362 152.0923 207.9077 14.51892811    09
Epoch (UTC): 06 February 2020 05:23:11
Eccentricity: 0.0003362
inclination: 57.0094°
perigee height: 717 km
apogee height: 722 km
right ascension of ascending node: 129.3021°
argument of perigee: 152.0923°
revolutions per day: 14.51892811
mean anomaly at epoch: 207.9077°
orbit number at epoch: 0

The dashed part of the orbit path shows where the satellite is in the earth's shadow,  

DLR